Date String (YYYY-MM-DD hh:mm:ss) UTC,Instrument flags,Ambient pressure (hPa),Sample flow (lpm),Bypass flow (lpm),Sample temperature (°C),Ambient temperature (°C),ASC tube jacket temperature (°C),LED temperature (°C),Box temperature (°C),Sample RH (%),Span deviation,Mass concentration (μg/m³),Mass concentration (μg/m³),Mass concentration (μg/m³)
DateTimeUTC,F1_M11,P_M11,Q1_M11,Q2_M11,T1_M11,T2_M11,T3_M11,T4_M11,T5_M11,U1_M11,ZSPAN_M11,X0_M11,X2_M11,X1_M11
2022-05-13 17:00:00,,0826.7,5.00,0.00,27.8,26.9,00.0,36.7,29.6,07.8,0000.0,0007.52,0003.14,0001.79
2022-05-13 17:01:00,,0827.0,5.01,0.00,27.8,26.9,00.0,36.7,29.6,08.1,0000.0,0007.61,0003.14,0001.79
2022-05-13 17:02:00,,0826.8,4.98,0.00,27.8,26.9,00.0,36.7,29.6,07.9,0000.0,0007.35,0003.12,0001.80
2022-05-13 17:03:00,,0826.8,5.02,0.00,27.8,26.9,00.0,36.7,29.6,08.3,0000.0,0007.21,0003.12,0001.81
2022-05-13 17:04:00,,0826.8,5.00,0.00,27.8,26.9,00.0,36.7,29.6,07.3,0000.0,0006.98,0003.05,0001.80
2022-05-13 17:05:00,,0826.9,5.00,0.00,27.8,26.9,00.0,36.7,29.6,07.2,0000.0,0006.99,0003.07,0001.78
2022-05-13 17:06:00,,0826.7,4.99,0.00,27.9,26.9,00.0,36.7,29.6,07.3,0000.0,0007.20,0003.10,0001.77
2022-05-13 17:07:00,,0826.7,4.99,0.00,27.9,26.9,00.0,36.8,29.6,07.2,0000.0,0006.94,0003.03,0001.76
2022-05-13 17:08:00,,0826.6,5.01,0.00,27.9,26.9,00.0,36.8,29.6,07.5,0000.0,0006.70,0002.98,0001.76
2022-05-13 17:09:00,,0826.6,4.99,0.00,27.9,27.0,00.0,36.8,29.6,07.9,0000.0,0007.18,0002.97,0001.75
2022-05-13 17:10:00,,0826.6,5.01,0.00,27.9,27.0,00.0,36.8,29.6,07.4,0000.0,0007.00,0002.98,0001.76
2022-05-13 17:11:00,,0826.9,4.98,0.00,27.9,27.0,00.0,36.8,29.7,07.6,0000.0,0006.36,0002.97,0001.77
2022-05-13 17:12:00,,0826.7,5.00,0.00,27.9,27.0,00.0,36.8,29.7,07.8,0000.0,0006.37,0003.03,0001.78
2022-05-13 17:13:00,,0826.7,5.00,0.00,27.9,27.0,00.0,36.8,29.7,07.4,0000.0,0006.20,0003.03,0001.78
2022-05-13 17:14:00,,0826.9,5.01,0.00,27.9,27.0,00.0,36.8,29.7,07.2,0000.0,0006.76,0002.98,0001.78
2022-05-13 17:15:00,,0826.8,4.99,0.00,27.9,27.0,00.0,36.8,29.7,07.4,0000.0,0007.03,0002.96,0001.76
2022-05-13 17:16:00,,0826.7,5.01,0.00,28.0,27.0,00.0,36.8,29.7,07.5,0000.0,0007.00,0002.92,0001.77
2022-05-13 17:17:00,,0826.5,4.99,0.00,28.0,27.0,00.0,36.8,29.8,07.6,0000.0,0006.71,0002.85,0001.77
2022-05-13 17:18:00,,0826.7,5.00,0.00,28.0,27.1,00.0,36.8,29.8,07.3,0000.0,0007.16,0002.96,0001.79
2022-05-13 17:19:00,,0826.7,5.00,0.00,28.0,27.1,00.0,36.8,29.7,06.9,0000.0,0007.34,0003.03,0001.79
2022-05-13 17:20:00,,0826.7,4.99,0.00,28.0,27.1,00.0,36.9,29.7,07.1,0000.0,0006.87,0003.02,0001.79
2022-05-13 17:21:00,,0826.7,5.01,0.00,28.0,27.1,00.0,36.9,29.8,07.3,0000.0,0006.80,0002.98,0001.77
2022-05-13 17:22:00,,0826.7,4.99,0.00,28.0,27.1,00.0,36.9,29.8,07.1,0000.0,0006.74,0003.01,0001.78
2022-05-13 17:23:00,,0826.6,5.00,0.00,28.0,27.1,00.0,36.9,29.8,07.2,0000.0,0006.67,0002.99,0001.76
2022-05-13 17:24:00,,0826.6,4.99,0.00,28.0,27.1,00.0,36.9,29.8,07.1,0000.0,0006.69,0002.97,0001.75
2022-05-13 17:25:00,,0826.6,5.01,0.00,28.1,27.1,00.0,36.9,29.8,07.1,0000.0,0006.09,0002.95,0001.75
2022-05-13 17:26:00,,0826.6,5.00,0.00,28.1,27.1,00.0,36.9,29.9,07.0,0000.0,0005.96,0003.01,0001.77
2022-05-13 17:27:00,,0826.6,4.99,0.00,28.1,27.2,00.0,36.9,29.9,07.3,0000.0,0005.92,0003.04,0001.79
2022-05-13 17:28:00,,0826.5,5.01,0.00,28.1,27.2,00.0,37.0,30.0,07.2,0000.0,0005.86,0003.03,0001.78
2022-05-13 17:29:00,,0826.6,5.01,0.00,28.1,27.2,00.0,37.0,29.9,07.1,0000.0,0005.51,0002.93,0001.77
2022-05-13 17:30:00,,0826.6,4.99,0.00,28.1,27.2,00.0,37.0,29.9,06.8,0000.0,0005.08,0002.78,0001.78
2022-05-13 17:31:00,,0826.6,5.01,0.00,28.1,27.2,00.0,37.0,29.8,07.0,0000.0,0004.98,0002.77,0001.78
2022-05-13 17:32:00,,0826.5,4.99,0.00,28.1,27.2,00.0,37.0,29.9,07.4,0000.0,0005.06,0002.86,0001.80
2022-05-13 17:33:00,,0826.6,4.99,0.00,28.1,27.2,00.0,37.0,29.9,07.3,0000.0,0005.23,0002.89,0001.81
2022-05-13 17:34:00,,0826.6,5.00,0.00,28.1,27.2,00.0,37.0,29.9,07.7,0000.0,0005.25,0002.85,0001.80
2022-05-13 17:35:00,,0826.5,5.01,0.00,28.2,27.2,00.0,37.0,29.9,07.6,0000.0,0005.36,0002.90,0001.81
2022-05-13 17:36:00,,0826.5,4.99,0.00,28.2,27.2,00.0,37.0,29.9,07.1,0000.0,0006.27,0002.98,0001.81
2022-05-13 17:37:00,,0826.6,5.00,0.00,28.2,27.2,00.0,37.0,29.9,07.2,0000.0,0006.51,0003.04,0001.80
2022-05-13 17:38:00,,0826.5,5.01,0.00,28.2,27.2,00.0,37.0,29.9,07.0,0000.0,0006.92,0003.01,0001.81
2022-05-13 17:39:00,,0826.6,5.00,0.00,28.2,27.2,00.0,37.1,30.0,07.2,0000.0,0007.13,0002.99,0001.80
2022-05-13 17:40:00,,0826.5,5.00,0.00,28.2,27.3,00.0,37.1,30.0,07.0,0000.0,0007.32,0003.00,0001.80
2022-05-13 17:41:00,,0826.6,5.00,0.00,28.2,27.3,00.0,37.1,30.0,07.4,0000.0,0007.49,0003.08,0001.81
2022-05-13 17:42:00,,0826.6,4.99,0.00,28.2,27.3,00.0,37.1,30.0,07.6,0000.0,0007.53,0003.07,0001.80
2022-05-13 17:43:00,,0826.6,5.00,0.00,28.2,27.3,00.0,37.1,30.0,07.7,0000.0,0007.51,0003.03,0001.81
2022-05-13 17:44:00,,0826.5,5.01,0.00,28.2,27.3,00.0,37.1,30.0,07.5,0000.0,0007.50,0003.01,0001.80
2022-05-13 17:45:00,,0826.5,4.99,0.00,28.2,27.3,00.0,37.1,30.0,07.7,0000.0,0007.63,0003.11,0001.81
2022-05-13 17:46:00,,0826.5,5.01,0.00,28.2,27.3,00.0,37.1,30.0,07.7,0000.0,0007.57,0003.11,0001.83
2022-05-13 17:47:00,,0826.6,5.00,0.00,28.2,27.3,00.0,37.1,30.0,07.4,0000.0,0006.93,0003.06,0001.83
2022-05-13 17:48:00,,0826.7,4.99,0.00,28.2,27.3,00.0,37.1,30.0,07.1,0000.0,0006.65,0003.03,0001.83
2022-05-13 17:49:00,,0826.6,5.01,0.00,28.3,27.4,00.0,37.1,30.0,07.4,0000.0,0006.20,0003.05,0001.84
2022-05-13 17:50:00,,0826.6,5.00,0.00,28.2,27.4,00.0,37.1,30.0,07.2,0000.0,0006.10,0003.10,0001.86
2022-05-13 17:51:00,,0826.5,4.99,0.00,28.2,27.3,00.0,37.1,30.0,07.2,0000.0,0006.03,0003.14,0001.86
2022-05-13 17:52:00,,0826.5,5.00,0.00,28.2,27.3,00.0,37.1,30.0,07.0,0000.0,0006.17,0003.14,0001.86
2022-05-13 17:53:00,,0826.5,5.01,0.00,28.2,27.3,00.0,37.1,29.9,07.1,0000.0,0006.56,0003.15,0001.86
2022-05-13 17:54:00,,0826.5,5.00,0.00,28.2,27.3,00.0,37.1,29.9,07.3,0000.0,0006.51,0003.14,0001.84
2022-05-13 17:55:00,,0826.6,5.00,0.00,28.2,27.3,00.0,37.1,29.9,07.5,0000.0,0006.49,0003.16,0001.85
2022-05-13 17:56:00,,0826.6,5.01,0.00,28.1,27.3,00.0,37.1,29.9,07.5,0000.0,0006.22,0003.13,0001.85
2022-05-13 17:57:00,,0826.5,5.01,0.00,28.1,27.3,00.0,37.1,29.8,07.4,0000.0,0006.17,0003.11,0001.84
2022-05-13 17:58:00,,0826.5,5.00,0.00,28.1,27.3,00.0,37.1,29.8,07.7,0000.0,0006.18,0003.09,0001.83
2022-05-13 17:59:00,,0826.5,5.01,0.00,28.1,27.3,00.0,37.1,29.8,07.7,0000.0,0006.44,0003.05,0001.82
